Location: Cuzcurrita-R�o Tir�n
(42.5415°N, 2.9642°W)
Time: 17:31:38
(UTC+00:00)

Okean O Rocket - Pass Details

Date: 17 January 2021
Orbit: 622 x 645 km, 98.2° (Epoch: 03 March)

Event Time Altitude Azimuth Distance (km) Brightness Sun altitude
Rises 18:41:18 0° 197° (SSW) 2,942 5.4 -17.2°
Reaches altitude 10° 18:43:51 10° 211° (SSW) 2,037 4.8 -17.6°
Maximum altitude 18:47:27 24° 265° (W) 1,339 4.1 -18.3°
Drops below altitude 10° 18:51:03 10° 319° (NW) 2,045 4.6 -18.9°
Sets 18:53:38 0° 334° (NNW) 2,956 5.2 -19.4°
